DAL4155 KSAV-KDAB

Flight info

Callsign DAL4155
Flight time 0h 47m
Altitude 24000
Route STARY LPERD TTHOR3
Aircraft B38M/M-SDE1FGHILORVWXY/HB1

Departure

Time 2026-04-27 02:46
Airport Savannah Hilton Head International Airport (KSAV)

Arrival

Time 2026-04-27 03:33
Airport Daytona Beach International Airport (KDAB)
Time Latitude Longitude Altitude Speed Heading
2026-04-27 02:12 32.13519 -81.20834 39 ft 0 kts
2026-04-27 02:37 32.13517 -81.20834 39 ft 3 kts
2026-04-27 02:37 32.13499 -81.20834 37 ft 3 kts
2026-04-27 02:38 32.13481 -81.20834 36 ft 3 kts
2026-04-27 02:38 32.13463 -81.20835 39 ft 0 kts 37°
2026-04-27 02:38 32.13454 -81.20850 35 ft 0 kts 92°
2026-04-27 02:39 32.13454 -81.20854 39 ft 0 kts 93°
2026-04-27 02:40 32.13453 -81.20846 39 ft 5 kts 102°
2026-04-27 02:40 32.13430 -81.20807 39 ft 10 kts 146°
2026-04-27 02:41 32.13348 -81.20814 42 ft 11 kts 187°
2026-04-27 02:41 32.13273 -81.20818 44 ft 13 kts 180°
2026-04-27 02:41 32.13169 -81.20819 46 ft 17 kts 180°
2026-04-27 02:41 32.13050 -81.20848 48 ft 15 kts 235°
2026-04-27 02:42 32.13042 -81.20985 48 ft 20 kts 271°
2026-04-27 02:42 32.13044 -81.21162 43 ft 23 kts 271°
2026-04-27 02:42 32.13045 -81.21357 42 ft 24 kts 270°
2026-04-27 02:42 32.13047 -81.21553 40 ft 25 kts 270°
2026-04-27 02:43 32.13033 -81.21760 36 ft 25 kts 261°
2026-04-27 02:43 32.12991 -81.21859 38 ft 8 kts 190°
2026-04-27 02:43 32.12974 -81.21860 37 ft 0 kts 180°
2026-04-27 02:44 32.12968 -81.21861 37 ft 4 kts 180°
2026-04-27 02:44 32.12912 -81.21856 37 ft 11 kts 162°
2026-04-27 02:44 32.12875 -81.21801 37 ft 6 kts 97°
2026-04-27 02:44 32.12875 -81.21792 39 ft 0 kts 90°
2026-04-27 02:45 32.12874 -81.21612 41 ft 59 kts 90°
2026-04-27 02:45 32.12870 -81.20857 60 ft 120 kts 90°
2026-04-27 02:45 32.12853 -81.19812 327 ft 133 kts 90°
2026-04-27 02:45 32.12862 -81.18652 538 ft 155 kts 89°
2026-04-27 02:46 32.12804 -81.17252 607 ft 185 kts 92°
2026-04-27 02:46 32.12717 -81.15681 920 ft 197 kts 92°
2026-04-27 02:46 32.12613 -81.14047 1201 ft 202 kts 92°
2026-04-27 02:46 32.12490 -81.12401 1489 ft 204 kts 92°
2026-04-27 02:47 32.12362 -81.10726 1808 ft 204 kts 92°
2026-04-27 02:47 32.12234 -81.09058 2110 ft 205 kts 92°
2026-04-27 02:47 32.12105 -81.07387 2424 ft 205 kts 92°
2026-04-27 02:47 32.11971 -81.05699 2722 ft 207 kts 92°
2026-04-27 02:48 32.11835 -81.03999 2975 ft 212 kts 92°
2026-04-27 02:48 32.11696 -81.02133 2979 ft 239 kts 92°
2026-04-27 02:48 32.11558 -81.00150 2980 ft 246 kts 92°
2026-04-27 02:48 32.11420 -80.98126 2982 ft 248 kts 92°
2026-04-27 02:49 32.11277 -80.96095 2978 ft 248 kts 92°
2026-04-27 02:49 32.11134 -80.94095 2981 ft 247 kts 92°
2026-04-27 02:49 32.10990 -80.92071 2983 ft 248 kts 92°
2026-04-27 02:49 32.10849 -80.90045 3022 ft 249 kts 92°
2026-04-27 02:50 32.10706 -80.87997 3019 ft 249 kts 92°
2026-04-27 02:50 32.10349 -80.85996 3043 ft 262 kts 115°
2026-04-27 02:50 32.09162 -80.84388 3031 ft 261 kts 140°
2026-04-27 02:50 32.07504 -80.83477 3172 ft 269 kts 166°
2026-04-27 02:51 32.05621 -80.83464 3855 ft 277 kts 190°
2026-04-27 02:51 32.03749 -80.84103 4819 ft 281 kts 197°
2026-04-27 02:51 32.01881 -80.84833 5789 ft 284 kts 199°
2026-04-27 02:51 31.99979 -80.85549 6603 ft 290 kts 198°
2026-04-27 02:52 31.98022 -80.86254 7412 ft 295 kts 198°
2026-04-27 02:52 31.96056 -80.86963 8349 ft 295 kts 199°
2026-04-27 02:52 31.94095 -80.87682 9336 ft 294 kts 200°
2026-04-27 02:52 31.92132 -80.88401 10179 ft 297 kts 201°
2026-04-27 02:53 31.90153 -80.89120 10965 ft 299 kts 200°
2026-04-27 02:53 31.88152 -80.89851 11711 ft 302 kts 200°
2026-04-27 02:53 31.86125 -80.90590 12429 ft 307 kts 200°
2026-04-27 02:53 31.84073 -80.91334 13184 ft 310 kts 200°
2026-04-27 02:54 31.81997 -80.92089 13928 ft 314 kts 201°
2026-04-27 02:54 31.79895 -80.92858 14592 ft 318 kts 201°
2026-04-27 02:54 31.77768 -80.93633 15265 ft 322 kts 201°
2026-04-27 02:54 31.75616 -80.94414 15933 ft 325 kts 201°
2026-04-27 02:55 31.73439 -80.95204 16593 ft 329 kts 201°
2026-04-27 02:55 31.71244 -80.96002 17257 ft 332 kts 201°
2026-04-27 02:55 31.69026 -80.96808 17928 ft 336 kts 201°
2026-04-27 02:55 31.66780 -80.97623 18542 ft 339 kts 201°
2026-04-27 02:56 31.64518 -80.98443 19119 ft 342 kts 201°
2026-04-27 02:56 31.62238 -80.99269 19697 ft 344 kts 201°
2026-04-27 02:56 31.59942 -81.00101 20282 ft 347 kts 201°
2026-04-27 02:56 31.57623 -81.00941 20857 ft 349 kts 201°
2026-04-27 02:57 31.55291 -81.01785 21426 ft 351 kts 201°
2026-04-27 02:57 31.52949 -81.02632 21997 ft 354 kts 201°
2026-04-27 02:57 31.50619 -81.03475 22556 ft 356 kts 201°
2026-04-27 02:57 31.48244 -81.04333 23102 ft 358 kts 201°
2026-04-27 02:58 31.45848 -81.05198 23651 ft 360 kts 201°
2026-04-27 02:58 31.44227 -81.05783 23897 ft 360 kts 201°
2026-04-27 02:58 31.41866 -81.06634 24017 ft 360 kts 201°
2026-04-27 02:58 31.39484 -81.07494 24011 ft 357 kts 201°
2026-04-27 02:59 31.37110 -81.08349 24019 ft 357 kts 201°
2026-04-27 02:59 31.34734 -81.09206 24014 ft 357 kts 201°
2026-04-27 02:59 31.32369 -81.10058 24010 ft 356 kts 201°
2026-04-27 02:59 31.29998 -81.10911 24010 ft 356 kts 201°
2026-04-27 03:00 31.27627 -81.11764 24013 ft 356 kts 201°
2026-04-27 03:00 31.25251 -81.12618 24012 ft 357 kts 201°
2026-04-27 03:00 31.22880 -81.13470 24011 ft 357 kts 201°
2026-04-27 03:00 31.20498 -81.14321 24013 ft 355 kts 200°
2026-04-27 03:01 31.18075 -81.14929 24019 ft 358 kts 195°
2026-04-27 03:01 31.15628 -81.15485 24024 ft 358 kts 195°
2026-04-27 03:01 31.13184 -81.16050 24024 ft 358 kts 195°
2026-04-27 03:01 31.10765 -81.16608 24023 ft 358 kts 195°
2026-04-27 03:02 31.08318 -81.17167 24027 ft 358 kts 195°
2026-04-27 03:02 31.05871 -81.17725 24024 ft 358 kts 195°
2026-04-27 03:02 31.03426 -81.18285 24024 ft 358 kts 195°
2026-04-27 03:02 31.00985 -81.18844 24022 ft 358 kts 195°
2026-04-27 03:03 30.98537 -81.19403 24024 ft 358 kts 195°
2026-04-27 03:03 30.93658 -81.20517 24016 ft 357 kts 195°
2026-04-27 03:03 30.91224 -81.21072 24013 ft 355 kts 195°
2026-04-27 03:04 30.88796 -81.21627 24006 ft 356 kts 195°
2026-04-27 03:04 30.86370 -81.22180 24007 ft 355 kts 195°
2026-04-27 03:04 30.83942 -81.22733 24006 ft 355 kts 195°
2026-04-27 03:04 30.81516 -81.23286 24009 ft 356 kts 195°
2026-04-27 03:05 30.79087 -81.23839 24010 ft 356 kts 195°
2026-04-27 03:05 30.76659 -81.24391 24008 ft 356 kts 195°
2026-04-27 03:05 30.74223 -81.24945 24005 ft 356 kts 195°
2026-04-27 03:05 30.71820 -81.25491 24010 ft 356 kts 195°
2026-04-27 03:06 30.69384 -81.26044 24010 ft 357 kts 195°
2026-04-27 03:06 30.66947 -81.26598 24017 ft 357 kts 195°
2026-04-27 03:06 30.64512 -81.27150 24008 ft 356 kts 195°
2026-04-27 03:06 30.62078 -81.27702 24007 ft 356 kts 195°
2026-04-27 03:07 30.59619 -81.28084 24014 ft 360 kts 183°
2026-04-27 03:07 30.57117 -81.27986 24020 ft 363 kts 181°
2026-04-27 03:07 30.54590 -81.27829 24022 ft 363 kts 181°
2026-04-27 03:07 30.52067 -81.27683 24013 ft 363 kts 181°
2026-04-27 03:08 30.49538 -81.27562 24015 ft 362 kts 181°
2026-04-27 03:08 30.47050 -81.27444 24016 ft 363 kts 181°
2026-04-27 03:08 30.44534 -81.27313 24016 ft 363 kts 181°
2026-04-27 03:08 30.42011 -81.27179 24016 ft 363 kts 181°
2026-04-27 03:09 30.39485 -81.27050 24015 ft 363 kts 181°
2026-04-27 03:09 30.36962 -81.26923 24014 ft 362 kts 181°
2026-04-27 03:09 30.34447 -81.26795 24014 ft 362 kts 181°
2026-04-27 03:09 30.31899 -81.26666 24013 ft 374 kts 181°
2026-04-27 03:10 30.29245 -81.26534 24014 ft 385 kts 181°
2026-04-27 03:10 30.26546 -81.26393 23856 ft 392 kts 181°
2026-04-27 03:10 30.23805 -81.26228 23278 ft 395 kts 180°
2026-04-27 03:10 30.21064 -81.26043 22727 ft 393 kts 180°
2026-04-27 03:11 30.18344 -81.25869 22198 ft 391 kts 180°
2026-04-27 03:11 30.15631 -81.25709 21668 ft 389 kts 180°
2026-04-27 03:11 30.12959 -81.25549 21158 ft 388 kts 180°
2026-04-27 03:11 30.10268 -81.25382 20613 ft 386 kts 180°
2026-04-27 03:12 30.07590 -81.25214 20103 ft 385 kts 180°
2026-04-27 03:12 30.04921 -81.25051 19583 ft 383 kts 180°
2026-04-27 03:12 30.02259 -81.24889 19063 ft 382 kts 180°
2026-04-27 03:12 29.99603 -81.24726 18547 ft 381 kts 180°
2026-04-27 03:13 29.96952 -81.24563 17990 ft 380 kts 180°
2026-04-27 03:13 29.94304 -81.24401 17417 ft 379 kts 180°
2026-04-27 03:13 29.91713 -81.24268 16874 ft 376 kts 182°
2026-04-27 03:13 29.89119 -81.24227 16451 ft 371 kts 180°
2026-04-27 03:14 29.86547 -81.24073 16063 ft 366 kts 179°
2026-04-27 03:14 29.84049 -81.23944 16006 ft 355 kts 181°
2026-04-27 03:14 29.81564 -81.23875 16009 ft 358 kts 181°
2026-04-27 03:14 29.79087 -81.23805 15996 ft 356 kts 181°
2026-04-27 03:15 29.76602 -81.23709 15995 ft 357 kts 180°
2026-04-27 03:15 29.74121 -81.23609 15997 ft 357 kts 180°
2026-04-27 03:15 29.71636 -81.23519 15972 ft 357 kts 181°
2026-04-27 03:15 29.69149 -81.23433 15990 ft 357 kts 181°
2026-04-27 03:16 29.66690 -81.23277 15943 ft 349 kts 173°
2026-04-27 03:16 29.64364 -81.22467 15562 ft 348 kts 160°
2026-04-27 03:16 29.62150 -81.21367 15181 ft 346 kts 157°
2026-04-27 03:16 29.59961 -81.20252 14827 ft 343 kts 158°
2026-04-27 03:17 29.57757 -81.19234 14480 ft 340 kts 160°
2026-04-27 03:17 29.55560 -81.18250 14122 ft 338 kts 159°
2026-04-27 03:17 29.53384 -81.17239 13774 ft 336 kts 158°
2026-04-27 03:17 29.51222 -81.16372 13411 ft 331 kts 163°
2026-04-27 03:18 29.49242 -81.15084 13061 ft 328 kts 134°
2026-04-27 03:18 29.48072 -81.12894 12729 ft 322 kts 103°
2026-04-27 03:18 29.47931 -81.10381 12396 ft 314 kts 81°
2026-04-27 03:18 29.48302 -81.07931 12044 ft 310 kts 75°
2026-04-27 03:19 29.48805 -81.05526 11682 ft 309 kts 73°
2026-04-27 03:19 29.49340 -81.03152 11325 ft 307 kts 73°
2026-04-27 03:19 29.49886 -81.00784 10961 ft 306 kts 73°
2026-04-27 03:19 29.50434 -80.98431 10610 ft 304 kts 73°
2026-04-27 03:20 29.50974 -80.96120 10266 ft 303 kts 73°
2026-04-27 03:20 29.51523 -80.93782 9917 ft 302 kts 73°
2026-04-27 03:20 29.52068 -80.91462 9544 ft 300 kts 72°
2026-04-27 03:20 29.52597 -80.89164 9147 ft 293 kts 72°
2026-04-27 03:21 29.53101 -80.86941 8747 ft 283 kts 72°
2026-04-27 03:21 29.53586 -80.84778 8344 ft 275 kts 72°
2026-04-27 03:21 29.54051 -80.82673 7955 ft 268 kts 76°
2026-04-27 03:21 29.53895 -80.80578 7598 ft 266 kts 114°
2026-04-27 03:22 29.52734 -80.78995 7194 ft 259 kts 149°
2026-04-27 03:22 29.51125 -80.78122 6726 ft 254 kts 160°
2026-04-27 03:22 29.49487 -80.77474 6220 ft 251 kts 162°
2026-04-27 03:22 29.47829 -80.76871 5720 ft 248 kts 162°
2026-04-27 03:23 29.46188 -80.76289 5225 ft 246 kts 162°
2026-04-27 03:23 29.44559 -80.75715 4738 ft 243 kts 162°
2026-04-27 03:23 29.42923 -80.75145 4269 ft 246 kts 162°
2026-04-27 03:23 29.41289 -80.74581 3922 ft 244 kts 162°
2026-04-27 03:24 29.39663 -80.74026 3563 ft 243 kts 162°
2026-04-27 03:24 29.38066 -80.73486 3212 ft 242 kts 162°
2026-04-27 03:24 29.36452 -80.72945 2848 ft 241 kts 162°
2026-04-27 03:24 29.34863 -80.72413 2676 ft 234 kts 162°
2026-04-27 03:25 29.33340 -80.71902 2676 ft 223 kts 162°
2026-04-27 03:25 29.31852 -80.71838 2687 ft 211 kts 200°
2026-04-27 03:25 29.30761 -80.72828 2678 ft 196 kts 249°
2026-04-27 03:25 29.30474 -80.74255 2764 ft 180 kts 262°
2026-04-27 03:26 29.30160 -80.75672 2708 ft 182 kts 253°
2026-04-27 03:26 29.29676 -80.77037 2696 ft 184 kts 248°
2026-04-27 03:26 29.29140 -80.78375 2692 ft 185 kts 248°
2026-04-27 03:26 29.28614 -80.79679 2680 ft 177 kts 247°
2026-04-27 03:27 29.28129 -80.80875 2668 ft 157 kts 248°
2026-04-27 03:27 29.27673 -80.82003 2671 ft 153 kts 248°
2026-04-27 03:27 29.27225 -80.83113 2673 ft 155 kts 248°
2026-04-27 03:27 29.26778 -80.84219 2680 ft 155 kts 248°
2026-04-27 03:28 29.26331 -80.85324 2684 ft 155 kts 248°
2026-04-27 03:28 29.25891 -80.86413 2676 ft 141 kts 248°
2026-04-27 03:28 29.25471 -80.87453 2681 ft 142 kts 248°
2026-04-27 03:28 29.25052 -80.88491 2681 ft 143 kts 248°
2026-04-27 03:29 29.24635 -80.89525 2697 ft 144 kts 248°
2026-04-27 03:29 29.24217 -80.90561 2704 ft 145 kts 248°
2026-04-27 03:29 29.23799 -80.91604 2489 ft 143 kts 247°
2026-04-27 03:29 29.23392 -80.92610 2317 ft 143 kts 246°
2026-04-27 03:30 29.22980 -80.93627 2102 ft 139 kts 248°
2026-04-27 03:30 29.22579 -80.94617 1937 ft 138 kts 247°
2026-04-27 03:30 29.22180 -80.95608 1754 ft 137 kts 248°
2026-04-27 03:30 29.21775 -80.96602 1569 ft 137 kts 246°
2026-04-27 03:31 29.21372 -80.97591 1388 ft 137 kts 246°
2026-04-27 03:31 29.20975 -80.98587 1219 ft 138 kts 247°
2026-04-27 03:31 29.20579 -80.99577 1029 ft 137 kts 245°
2026-04-27 03:31 29.20173 -81.00562 850 ft 135 kts 244°
2026-04-27 03:32 29.19784 -81.01539 676 ft 134 kts 245°
2026-04-27 03:32 29.19409 -81.02497 531 ft 132 kts 244°
2026-04-27 03:32 29.19018 -81.03450 362 ft 132 kts 244°
2026-04-27 03:32 29.18632 -81.04397 201 ft 132 kts 245°
2026-04-27 03:33 29.18255 -81.05327 74 ft 126 kts 245°
2026-04-27 03:33 29.17966 -81.06026 47 ft 59 kts 249°
2026-04-27 03:33 29.17863 -81.06281 43 ft 21 kts 245°
2026-04-27 03:33 29.17840 -81.06375 40 ft 9 kts 274°
2026-04-27 03:34 29.17864 -81.06450 38 ft 11 kts 308°
2026-04-27 03:34 29.17908 -81.06475 39 ft 4 kts
2026-04-27 03:34 29.17939 -81.06455 39 ft 8 kts 51°
2026-04-27 03:34 29.17967 -81.06397 42 ft 8 kts 64°
2026-04-27 03:35 29.17990 -81.06342 41 ft 8 kts 65°
2026-04-27 03:35 29.18019 -81.06269 42 ft 12 kts 64°
2026-04-27 03:35 29.18068 -81.06171 42 ft 13 kts 41°
2026-04-27 03:35 29.18121 -81.06164 43 ft 6 kts 350°
2026-04-27 03:36 29.18172 -81.06190 43 ft 10 kts 333°
2026-04-27 03:36 29.18250 -81.06220 44 ft 13 kts 346°
2026-04-27 03:36 29.18342 -81.06213 44 ft 12 kts 16°
2026-04-27 03:36 29.18378 -81.06189 44 ft 1 kts 62°
2026-04-27 03:37 29.18380 -81.06163 44 ft 4 kts 90°
2026-04-27 03:37 29.18380 -81.06155 44 ft 0 kts 90°